Powrót do katalogu

STARLINK-36285

AktywnyŁącznośćVLEO
NORAD 68530·PAYLOAD·🇺🇸 United States

Wystrzelony Mar 30, 2026 z Cape Canaveral Space Force Station

Loading…

Następne Przeloty (najbliższe 24 godziny)

TLE

ŚwieżeSource: CelesTrak SupGP

Epoka: Sep 14, 2026, 15:18 UTC

1 68530C 26068Y   26257.63798611  .00036038  00000+0  10651-2 0  2578
2 68530  53.1598 329.1846 0001126  65.0370  96.2335 15.34362946    11

Śledź STARLINK-36285 w czasie rzeczywistym z AllMySat

Download on the App Store